Simultaneous Nadir Overpasses (SNOs) Predictions

Prediction of SNOs between FY3D and TERRA Satellite Orbit:

Table of predicted SNOs for the next 14.0 days since TLE Epoch: 1/7/2023
Index Date (FY3D) Time (FY3D) Lat,Lon (FY3D) SZA (FY3D ) Date (TERRA) Time (TERRA) Lat,Lon (TERRA) SZA (TERRA ) Distance(km) Time Diff (sec)
1 01/09/2023 14:56:09 -72.68, 135.75 85.33 01/09/2023 14:57:02 -72.71, 135.76 85.30 3.42 53
2 01/09/2023 15:46:54 72.60, -56.77 94.59 01/09/2023 15:46:26 72.61, -56.76 94.60 1.41 28
3 01/12/2023 03:00:29 72.93, 134.19 94.55 01/12/2023 03:01:40 72.85, 134.84 94.46 22.77 71
4 01/12/2023 03:51:09 -72.66, -57.94 85.73 01/12/2023 03:51:07 -72.66, -57.87 85.74 2.25 2
5 01/12/2023 04:41:47 72.23, 110.25 93.83 01/12/2023 04:40:36 72.29, 109.11 93.90 38.98 71
6 01/14/2023 15:55:23 72.67, -58.98 93.86 01/14/2023 15:55:46 72.67, -59.04 93.85 2.07 23
7 01/14/2023 16:46:07 -72.60, 108.47 86.22 01/14/2023 16:45:11 -72.59, 108.46 86.24 1.99 56
8 01/17/2023 03:59:38 -72.74, -60.15 86.54 01/17/2023 04:00:26 -72.73, -60.12 86.56 1.45 48
9 01/17/2023 04:50:22 72.62, 107.40 93.34 01/17/2023 04:49:50 72.62, 107.34 93.34 2.12 32
10 01/19/2023 16:03:53 72.77, -61.24 92.99 01/19/2023 16:05:04 72.79, -61.19 93.00 3.06 71
11 01/19/2023 16:54:37 -72.69, 106.23 87.10 01/19/2023 16:54:30 -72.66, 106.22 87.14 3.34 7



Historial Predications of SNOs between FY3D and TERRA
